{"data":{"norad_id":61970,"epoch":"2026-05-25T04:12:23.577696Z","epoch_age_seconds":50147,"freshness":"FRESH","line1":"1 61970U 24210M   26145.17527289  .00016588  00000+0  61077-3 0  9992","line2":"2 61970  42.9995 108.1960 0001271 269.3951  90.6755 15.27589391 86617","mean_motion":15.27589391,"eccentricity":0.0001271,"inclination_deg":42.9995,"raan_deg":108.196,"arg_perigee_deg":269.3951,"mean_anomaly_deg":90.6755,"bstar":0.00061077,"rev_number":8661,"period_min":94.266169199914,"perigee_km":482.14892297255,"apogee_km":483.89302933009,"semimajor_km":6861.1579761513,"source":"CELESTRAK","updated_at":"2026-05-25T13:38:19.514249Z"}}